Flag for Brazil Weather past 2 weeks in Volta Redonda, Rio de Janeiro, Brazil

Now
66 °F

Fog.


Feels Like: 66 °F
Forecast: 60 / 67 °F
Wind: 6 mph from Northwest

Location: Galeao

Current Time: Sep 5, 2015 at 3:34:53 AM

Latest Report: Sep 5, 2015 at 3:00 AM


Visibility: 2 mi

Pressure: 30.04 "Hg

Humidity: 94%

Dew point: 64 °F

Location of Volta RedondaLocation

Historic Weather in Volta Redonda — Graph

°F

Volta Redonda temperature yesterday

Maximum temperature yesterday: 79 °F (at 10:00 AM)
Minimum temperature yesterday: 66 °F (at 4:00 AM)
Average temperature yesterday: 71 °F

Past Weeks' High & Low Weather Summary

 TemperatureHumidityPressure
High97 °F (Sep 1, 2:00 PM)94% (Aug 23, 5:00 AM)30.24 "Hg (Aug 23, 5:00 AM)
Low63 °F (Aug 23, 5:00 AM)28% (Sep 1, 2:00 PM)29.83 "Hg (Aug 23, 3:00 PM)
Average72 °F74%30.05 "Hg
* Reported Aug 21 2:00 AM — Sep 5 2:00 AM, Volta Redonda, Weather by CustomWeather, © 2015

Note: Actual official high and low records may vary slightly from our data, if they occured in-between our weather recording intervals... More about our weather records

Advertising

Volta Redonda weather history for previous 24 hours

 ConditionsComfort  
Time TempWeatherWind HumidityBarometerVisibility
2:00 AM
Sat, Sep 5
66 °FMostly cloudy.7 mph94%30.07 "Hg5 mi
1:00 AM66 °FOvercast.7 mph94%30.09 "Hg5 mi
12:00 AM66 °FMostly cloudy.8 mph88%30.09 "Hg5 mi
11:00 PM
Fri, Sep 4
68 °FLight rain. Mostly cloudy.6 mph88%30.09 "Hg5 mi
10:00 PM68 °FLight rain. Partly cloudy.6 mph88%30.09 "Hg5 mi
9:00 PM68 °FPassing clouds.7 mph88%30.07 "HgN/A
8:00 PM70 °FPartly cloudy.9 mph78%30.07 "HgN/A
7:00 PM68 °FPassing clouds.8 mph88%30.04 "HgN/A
6:00 PM68 °FPassing clouds.8 mph88%30.04 "Hg5 mi
5:00 PM70 °FPartly cloudy.12 mph83%30.04 "HgN/A
4:00 PM72 °FPartly sunny.18 mph73%30.01 "HgN/A
3:00 PM75 °FBroken clouds.18 mph65%29.98 "HgN/A
2:00 PM75 °FBroken clouds.17 mph65%29.98 "HgN/A
1:00 PM77 °FPartly sunny.23 mph61%29.98 "HgN/A
12:00 PM79 °FPartly sunny.21 mph61%29.95 "HgN/A
11:00 AM79 °FClear.6 mph61%29.95 "Hg5 mi
10:00 AM79 °FSunny.7 mph61%29.95 "Hg10 mi
9:00 AM75 °FSunny.2 mph69%29.95 "Hg10 mi
8:00 AM72 °FClear.6 mph73%29.95 "Hg4 mi
7:00 AM68 °FFog.3 mph83%29.92 "Hg2 mi
6:00 AM66 °FScattered clouds.3 mph88%29.89 "Hg4 mi
5:00 AM68 °FFog.5 mph88%29.89 "Hg3 mi
4:00 AM66 °FPassing clouds.No wind88%29.89 "HgN/A
3:00 AM68 °FPassing clouds.No wind83%29.89 "Hg6 mi
Weather by CustomWeather, © 2015

See weather overviewHow to use our weather pages